Flag Weather past 2 weeks in Gronau (Westfalen), North Rhine-Westphalia, Germany

Now
43 °F

Overcast.


Feels Like: 40 °F
Forecast: 35 / 45 °F
Wind: 5 mph from Southeast

Location: Twenthe

Current Time: Nov 27, 2014 at 12:01:16 PM

Latest Report: Nov 27, 2014 at 11:00 AM


Visibility: 6 mi

Pressure: 29.82 "Hg

Humidity: 79%

Dew point: 36 °F

Location of Gronau (Westfalen)Location

Historic Weather in Gronau (Westfalen) — Graph

°F

Gronau (Westfalen) temperature yesterday

Maximum temperature yesterday: 42 °F (at 4:00 PM)
Minimum temperature yesterday: 38 °F (at 7:00 AM)
Average temperature yesterday: 40 °F

Past Weeks' High & Low Weather Summary

 TemperatureHumidityPressure
High59 °F (Nov 23, 2:00 PM)100% (Nov 13, 2:00 AM)30.36 "Hg (Nov 13, 2:00 AM)
Low31 °F (Nov 21, 4:00 AM)67% (Nov 24, 1:00 PM)29.47 "Hg (Nov 16, 2:00 PM)
Average45 °F88%29.96 "Hg
* Reported Nov 12 10:00 AM — Nov 27 10:00 AM, Gronau (Westfalen), Weather by CustomWeather, © 2014

Note: Actual official high and low records may vary slightly from our data, if they occured in-between our weather recording intervals... More about our weather records

Advertising

Gronau (Westfalen) weather history for previous 24 hours

 ConditionsComfort  
Time TempWeatherWind HumidityBarometerVisibility
10:00 AM
Nov 27
42 °FOvercast.3 mph79%29.82 "Hg6 mi
9:00 AM42 °FOvercast.3 mph80%29.83 "Hg6 mi
8:00 AM42 °FOvercast.3 mph81%29.82 "Hg6 mi
7:00 AM42 °FOvercast.2 mph81%29.82 "Hg6 mi
6:00 AM42 °FOvercast.3 mph81%29.83 "Hg6 mi
5:00 AM41 °FOvercast.2 mph82%29.84 "Hg6 mi
4:00 AM41 °FOvercast.2 mph83%29.85 "Hg6 mi
3:00 AM41 °FFog.2 mph85%29.86 "Hg6 mi
2:00 AM40 °FFog.3 mph86%29.87 "Hg6 mi
1:00 AM40 °FFog.3 mph86%29.89 "Hg6 mi
12:00 AM40 °FFog.3 mph87%29.91 "Hg6 mi
11:00 PM
Nov 26
40 °FOvercast.5 mph87%29.92 "Hg5 mi
10:00 PM40 °FLight rain. Overcast.3 mph88%29.93 "Hg5 mi
9:00 PM40 °FLight freezing rain. Overcast.3 mph83%29.93 "Hg6 mi
8:00 PM42 °FOvercast.3 mph75%29.93 "Hg7 mi
7:00 PM42 °FOvercast.5 mph75%29.94 "Hg7 mi
6:00 PM41 °FOvercast.3 mph75%29.95 "Hg7 mi
5:00 PM42 °FPassing clouds.5 mph74%29.95 "Hg8 mi
4:00 PM42 °FPartly sunny.5 mph72%29.96 "Hg8 mi
3:00 PM42 °FScattered clouds.5 mph74%29.97 "Hg8 mi
2:00 PM42 °FPassing clouds.5 mph75%29.99 "Hg7 mi
1:00 PM41 °FScattered clouds.5 mph77%30.01 "Hg6 mi
12:00 PM40 °FSunny.3 mph78%30.03 "Hg6 mi
Weather by CustomWeather, © 2014

See weather overviewHow to use our weather pages